KC5AEE Weather Reports


time (UTC)temp
F
wind
direction
speed
knots
gust
knots
rain 1hr
in
rain 24hr
in
rain mn
in
humidity
%
barometer
mb
20260510230222 66 360 13.0 25.2 0.00 0.00 0.00 35 1024.9
20260510224719 66 360 13.0 22.6 0.00 0.00 0.00 35 1024.9
20260510223222 66 360 13.9 23.5 0.00 0.00 0.00 35 1024.9
20260510221719 68 360 12.2 19.1 0.00 0.00 0.00 34 1025.0
20260510220223 67 360 13.0 22.6 0.00 0.00 0.00 35 1025.1
20260510214718 67 360 12.2 20.0 0.00 0.00 0.00 35 1025.1
20260510213219 67 360 13.0 20.0 0.00 0.00 0.00 35 1025.1
20260510211717 66 360 12.2 19.1 0.00 0.00 0.00 36 1025.1
20260510210222 65 360 11.3 20.0 0.00 0.00 0.00 37 1025.2
20260510204722 65 360 12.2 20.9 0.00 0.00 0.00 37 1025.2
20260510203218 67 360 14.8 22.6 0.00 0.00 0.00 34 1025.1
20260510201717 66 360 13.9 21.7 0.00 0.00 0.00 34 1025.0
20260510200225 69 360 13.0 21.7 0.00 0.00 0.00 29 1024.7
20260510194721 67 360 11.3 16.5 0.00 0.00 0.00 31 1024.5
20260510193224 69 360 7.8 16.5 0.00 0.00 0.00 28 1024.4
20260510184718 66 360 7.0 13.0 0.00 0.00 0.00 31 1024.6
20260510183219 66 360 7.8 13.0 0.00 0.00 0.00 30 1024.6
20260510181720 68 360 7.0 14.8 0.00 0.00 0.00 30 1024.6
20260510180221 69 360 8.7 16.5 0.00 0.00 0.00 30 1024.7
20260510174716 68 360 9.6 17.4 0.00 0.00 0.00 31 1024.7
20260510171718 68 360 11.3 18.2 0.00 0.00 0.00 31 1024.6
20260510170217 67 360 11.3 19.1 0.00 0.00 0.00 30 1024.5
20260510164718 69 360 7.8 14.8 0.00 0.00 0.00 26 1024.3
20260510163219 68 134 7.8 14.8 0.00 0.00 0.00 26 1024.4
20260510161718 67 360 7.8 15.6 0.00 0.00 0.00 27 1024.3
20260510160223 66 360 7.8 15.6 0.00 0.00 0.00 28 1024.2
20260510154715 66 360 7.0 13.0 0.00 0.00 0.00 29 1024.2
20260510153218 64 360 7.0 13.9 0.00 0.00 0.00 30 1024.1
20260510144718 61 360 10.4 15.6 0.00 0.00 0.00 34 1023.9
20260510143217 61 360 9.6 14.8 0.00 0.00 0.00 34 1023.7
20260510141718 60 360 8.7 13.9 0.00 0.00 0.00 35 1023.7
20260510140220 60 360 9.6 14.8 0.00 0.00 0.00 34 1023.5
20260510134718 59 360 6.1 13.0 0.00 0.00 0.00 35 1023.4
20260510133221 58 360 4.3 7.0 0.00 0.00 0.00 35 1023.4
20260510131718 57 360 4.3 7.8 0.00 0.00 0.00 36 1023.3
20260510124718 56 360 3.5 5.2 0.00 0.00 0.00 37 1022.9
20260510123218 56 360 3.5 4.3 0.00 0.00 0.00 36 1022.7
20260510121717 57 360 3.5 5.2 0.00 0.00 0.00 34 1022.5
20260510120216 58 360 4.3 7.8 0.00 0.00 0.00 33 1022.3
20260510114717 59 155 4.3 7.8 0.00 0.00 0.00 31 1022.4
20260510113221 60 360 0.9 7.0 0.00 0.00 0.00 30 1022.3
20260510111715 60 22 3.5 10.4 0.00 0.00 0.00 31 1023.0
20260510110223 61 84 0.9 7.0 0.00 0.00 0.00 28 1022.9
20260510104719 60 250 1.7 13.0 0.00 0.00 0.00 30 1022.1
20260510103218 57 55 0.9 2.6 0.00 0.00 0.00 28 1022.1
20260510101718 58 105 0.0 0.0 0.00 0.00 0.00 27 1021.5
20260510100222 59 105 0.0 0.0 0.00 0.00 0.00 26 1021.5
20260510094719 58 202 0.0 1.7 0.00 0.00 0.00 27 1021.5
20260510091719 58 59 0.0 0.9 0.00 0.00 0.00 27 1021.2
20260510090219 58 59 0.0 0.9 0.00 0.00 0.00 26 1021.2
20260510084717 57 57 0.0 1.7 0.00 0.00 0.00 27 1021.0
20260510083221 56 161 0.0 0.0 0.00 0.00 0.00 27 1020.7
20260510081718 56 161 0.0 0.0 0.00 0.00 0.00 27 1020.6
20260510074717 56 162 0.0 0.0 0.00 0.00 0.00 26 1020.5
20260510073218 57 162 0.0 0.0 0.00 0.00 0.00 25 1020.4
20260510071718 57 193 0.0 0.0 0.00 0.00 0.00 24 1020.4
20260510064719 59 205 0.0 0.9 0.00 0.00 0.00 22 1020.0
20260510063217 60 211 0.9 1.7 0.00 0.00 0.00 21 1020.0
20260510061719 60 200 0.9 2.6 0.00 0.00 0.00 21 1020.0
20260510060224 60 205 0.0 0.9 0.00 0.00 0.00 20 1019.9
20260510054720 60 199 0.0 1.7 0.00 0.00 0.00 20 1019.6
20260510053222 61 198 0.0 1.7 0.00 0.00 0.00 19 1019.4
20260510050225 63 132 0.9 2.6 0.00 0.00 0.00 19 1019.3
20260510044723 64 130 0.9 3.5 0.00 0.00 0.00 18 1019.1
20260510043222 65 156 0.9 3.5 0.00 0.00 0.00 18 1019.1
20260510040223 66 157 0.9 6.1 0.00 0.00 0.00 19 1019.0
20260510033221 69 149 2.6 8.7 0.00 0.00 0.00 17 1018.9
20260510031722 69 163 4.3 20.9 0.00 0.00 0.00 18 1018.9
20260510030218 69 165 1.7 8.7 0.00 0.00 0.00 17 1019.0
20260510024719 69 149 1.7 7.8 0.00 0.00 0.00 18 1018.5
20260510023222 69 131 1.7 6.1 0.00 0.00 0.00 18 1018.3
20260510021720 70 134 3.5 14.8 0.00 0.00 0.00 17 1017.9
20260510020224 69 126 1.7 8.7 0.00 0.00 0.00 17 1017.9
20260510014721 70 115 0.9 5.2 0.00 0.00 0.00 16 1017.8
20260510013218 71 78 2.6 7.8 0.00 0.00 0.00 15 1017.7
20260510011719 72 66 2.6 8.7 0.00 0.00 0.00 14 1017.5
20260510004721 74 76 2.6 12.2 0.00 0.00 0.00 13 1017.3
20260510003215 74 90 1.7 4.3 0.00 0.00 0.00 12 1017.3
20260510001719 76 98 2.6 8.7 0.00 0.00 0.00 12 1017.2
20260510000223 78 40 2.6 7.8 0.00 0.00 0.00 11 1017.3
20260509234719 77 136 6.1 15.6 0.00 0.00 0.00 9 1017.3
20260509233219 78 360 7.8 14.8 0.00 0.00 0.00 9 1017.3